TimeAKDT,TemperatureF,Dew PointF,Humidity,Sea Level PressureIn,VisibilityMPH,Wind Direction,Wind SpeedMPH,Gust SpeedMPH,PrecipitationIn,Events,Conditions,WindDirDegrees,DateUTC
12:53 AM,10.0,7.0,87,29.91,3.0,NW,4.6,-,0.00,Snow,Light Snow,310,2012-10-31 08:53:00
1:53 AM,10.0,7.0,87,29.91,3.0,NW,4.6,-,0.00,Snow,Light Snow,320,2012-10-31 09:53:00
2:53 AM,10.0,7.0,87,29.91,3.0,NW,4.6,-,0.00,Snow,Light Snow,320,2012-10-31 10:53:00
3:53 AM,10.0,6.1,84,29.90,6.0,NW,5.8,-,0.00,Snow,Light Snow,320,2012-10-31 11:53:00
4:53 AM,10.0,6.1,84,29.90,4.0,NW,4.6,-,0.00,Snow,Light Snow,320,2012-10-31 12:53:00
5:53 AM,9.0,6.1,88,29.89,2.5,NNW,5.8,-,0.00,Snow,Light Snow,330,2012-10-31 13:53:00
6:53 AM,9.0,5.0,84,29.88,6.0,NNW,4.6,-,0.00,Snow,Light Snow,330,2012-10-31 14:53:00
7:53 AM,8.1,3.9,83,29.88,6.0,WNW,3.5,-,0.00,Snow,Light Snow,300,2012-10-31 15:53:00
8:53 AM,6.1,3.0,87,29.89,9.0,NW,4.6,-,0.00,Snow,Light Snow,320,2012-10-31 16:53:00
9:41 AM,6.8,3.2,85,29.74,3.0,Calm,Calm,-,0.00,Snow,Light Snow,0,2012-10-31 17:41:00
9:53 AM,7.0,3.0,84,29.90,2.0,Calm,Calm,-,0.00,Snow,Light Snow,0,2012-10-31 17:53:00
10:53 AM,6.1,3.0,87,29.90,2.5,NNW,4.6,-,0.00,Snow,Light Snow,340,2012-10-31 18:53:00
11:53 AM,6.1,1.9,83,29.91,9.0,Calm,Calm,-,0.00,Snow,Light Snow,0,2012-10-31 19:53:00
12:53 PM,10.0,6.1,84,29.91,7.0,Calm,Calm,-,0.00,Snow,Light Snow,0,2012-10-31 20:53:00
1:14 PM,12.2,8.6,85,29.75,2.0,Calm,Calm,-,0.00,Snow,Light Snow,0,2012-10-31 21:14:00
1:53 PM,12.0,8.1,84,29.90,2.5,Calm,Calm,-,0.00,Snow,Light Snow,0,2012-10-31 21:53:00
2:34 PM,12.2,6.8,79,29.75,3.0,NNW,4.6,-,0.00,Snow,Light Snow,340,2012-10-31 22:34:00
2:53 PM,12.0,8.1,84,29.90,7.0,NW,3.5,-,0.00,Snow,Light Snow,320,2012-10-31 22:53:00
3:27 PM,12.2,6.8,79,29.75,9.0,NNW,8.1,-,0.00,Snow,Light Snow,340,2012-10-31 23:27:00
3:53 PM,12.0,8.1,84,29.91,10.0,NW,4.6,-,0.00,,Mostly Cloudy,310,2012-10-31 23:53:00
4:24 PM,12.2,8.6,85,29.76,2.5,NW,4.6,-,0.00,Snow,Light Snow,310,2012-11-01 00:24:00
4:53 PM,12.0,8.1,84,29.92,3.0,Calm,Calm,-,0.00,Snow,Light Snow,0,2012-11-01 00:53:00
5:53 PM,10.9,8.1,88,29.93,2.0,Calm,Calm,-,0.00,Snow,Light Snow,0,2012-11-01 01:53:00
6:53 PM,10.0,7.0,87,29.94,2.5,Calm,Calm,-,0.01,Snow,Light Snow,0,2012-11-01 02:53:00
7:53 PM,9.0,6.1,88,29.96,1.5,Calm,Calm,-,0.00,Snow,Light Snow,0,2012-11-01 03:53:00
8:53 PM,7.0,3.0,84,29.99,9.0,Calm,Calm,-,0.00,,Mostly Cloudy,0,2012-11-01 04:53:00
9:53 PM,1.9,-2.0,83,30.00,6.0,Calm,Calm,-,0.00,Snow,Light Snow,0,2012-11-01 05:53:00
10:53 PM,-2.9,-7.1,82,30.03,9.0,Calm,Calm,-,0.00,,Scattered Clouds,0,2012-11-01 06:53:00
11:53 PM,-6.0,-11.0,79,30.05,10.0,Calm,Calm,-,N/A,,Mostly Cloudy,0,2012-11-01 07:53:00